FW7227 Weather Reports


time (UTC)temp
F
wind
direction
speed
knots
gust
knots
rain 1hr
in
rain 24hr
in
rain mn
in
humidity
%
barometer
mb
20260902070105 56 165 1.7 7.0 0.00 0.00 0.00 94 1019.8
20260902065557 56 160 2.6 7.0 0.00 0.08 0.00 94 1019.8
20260902065058 55 169 1.7 6.1 0.00 0.08 0.00 95 1019.8
20260902064601 55 178 2.6 7.8 0.00 0.08 0.00 95 1019.9
20260902064056 55 165 3.5 7.8 0.00 0.08 0.00 95 1019.8
20260902063556 55 177 0.9 7.8 0.00 0.08 0.00 95 1019.8
20260902063103 55 171 3.5 7.8 0.00 0.08 0.00 95 1019.8
20260902062555 55 167 2.6 7.0 0.00 0.08 0.00 95 1019.8
20260902062100 54 173 2.6 6.1 0.00 0.08 0.00 95 1019.8
20260902061101 54 187 2.6 6.1 0.00 0.08 0.00 95 1019.8
20260902060555 54 161 2.6 6.1 0.00 0.08 0.00 95 1019.9
20260902055556 54 168 2.6 6.1 0.00 0.08 0.00 95 1019.9
20260902055057 54 173 1.7 6.1 0.00 0.08 0.00 95 1019.8
20260902054641 54 172 2.6 5.2 0.00 0.08 0.00 95 1019.9
20260902054056 54 167 1.7 5.2 0.00 0.08 0.00 95 1019.8
20260902053556 54 163 2.6 5.2 0.00 0.08 0.00 95 1019.8
20260902053108 53 165 1.7 4.3 0.00 0.08 0.00 95 1019.9
20260902052556 53 165 0.9 5.2 0.00 0.08 0.00 95 1019.8
20260902052056 53 165 0.9 5.2 0.00 0.08 0.00 95 1019.8
20260902051602 53 167 1.7 5.2 0.00 0.08 0.00 96 1019.8
20260902051056 53 167 1.7 5.2 0.00 0.08 0.00 95 1019.8
20260902050556 53 170 0.9 5.2 0.00 0.08 0.00 95 1019.9
20260902045556 53 171 1.7 5.2 0.00 0.08 0.00 95 1019.8
20260902045058 53 169 1.7 5.2 0.00 0.08 0.00 95 1019.8
20260902044611 53 171 2.6 6.1 0.00 0.08 0.00 95 1019.8
20260902044057 53 171 2.6 6.1 0.00 0.08 0.00 95 1019.8
20260902043556 53 173 2.6 5.2 0.00 0.08 0.00 95 1019.8
20260902043109 53 172 3.5 6.1 0.00 0.08 0.00 95 1019.8
20260902042556 52 0 2.6 6.1 0.00 0.08 0.00 95 1019.8
20260902042056 52 167 2.6 5.2 0.00 0.08 0.00 95 1019.9
20260902041603 52 167 2.6 5.2 0.00 0.08 0.00 95 1019.9
20260902041056 52 192 0.9 3.5 0.00 0.08 0.00 95 1019.9
20260902040558 51 0 0.9 2.6 0.00 0.08 0.00 95 1019.9
20260902040107 51 214 0.9 2.6 0.00 0.08 0.00 94 1019.9
20260902035556 51 0 0.0 2.6 0.00 0.08 0.00 94 1019.9
20260902035058 51 0 0.0 1.7 0.00 0.08 0.00 94 1019.9
20260902034606 50 0 0.0 0.0 0.00 0.08 0.00 94 1019.9
20260902034056 50 0 0.0 0.0 0.00 0.08 0.00 93 1020.0
20260902033600 50 0 0.0 0.0 0.00 0.08 0.00 93 1020.0
20260902033101 50 0 0.0 0.0 0.00 0.08 0.00 93 1020.0
20260902032557 50 0 0.0 0.0 0.00 0.08 0.00 93 1020.1
20260902032056 50 0 0.0 0.0 0.00 0.08 0.00 93 1020.0
20260902031608 51 0 0.0 0.0 0.00 0.08 0.00 93 1020.1
20260902031058 51 0 0.0 0.0 0.00 0.08 0.00 93 1020.1
20260902030556 51 0 0.0 0.0 0.00 0.08 0.00 93 1020.1
20260902030104 51 0 0.0 0.0 0.00 0.08 0.00 93 1020.2
20260902025557 51 0 0.0 0.0 0.00 0.08 0.00 93 1020.2
20260902025057 51 0 0.0 0.0 0.00 0.08 0.00 93 1020.2
20260902024605 51 0 0.0 0.0 0.00 0.08 0.00 93 1020.2
20260902024056 51 0 0.0 0.0 0.00 0.08 0.00 93 1020.2
20260902023557 51 0 0.0 0.0 0.00 0.08 0.00 93 1020.2
20260902023110 51 0 0.0 0.0 0.00 0.08 0.00 92 1020.2
20260902022557 51 0 0.0 0.0 0.00 0.08 0.00 92 1020.2
20260902022057 51 0 0.0 0.0 0.00 0.08 0.00 92 1020.2
20260902021603 51 0 0.0 0.0 0.00 0.08 0.00 92 1020.3
20260902021059 51 0 0.0 0.0 0.00 0.08 0.00 92 1020.2
20260902020602 51 0 0.0 0.0 0.00 0.08 0.00 92 1020.2
20260902020105 51 0 0.0 0.0 0.00 0.08 0.00 92 1020.0
20260902015557 51 0 0.0 0.0 0.00 0.08 0.00 92 1019.9
20260902015058 52 0 0.0 0.0 0.00 0.08 0.00 92 1019.9
20260902014600 52 0 0.0 0.0 0.00 0.08 0.00 92 1019.9
20260902014057 52 0 0.0 0.0 0.00 0.08 0.00 92 1019.9
20260902013558 52 0 0.0 0.0 0.00 0.08 0.00 92 1019.9
20260902013106 52 0 0.0 0.0 0.00 0.08 0.00 92 1019.9
20260902012600 52 0 0.0 0.0 0.00 0.08 0.00 92 1019.8
20260902012057 52 0 0.0 0.0 0.00 0.08 0.00 92 1019.8
20260902011601 53 0 0.0 0.0 0.00 0.08 0.00 92 1019.8
20260902011058 53 0 0.0 0.0 0.00 0.08 0.00 92 1019.9
20260902010557 53 0 0.0 0.0 0.00 0.08 0.00 92 1019.9
20260902010112 53 0 0.0 0.0 0.00 0.08 0.00 92 1019.9
20260902005558 53 0 0.0 0.0 0.00 0.08 0.00 92 1019.9
20260902005059 53 0 0.0 0.0 0.00 0.08 0.00 93 1020.0
20260902004607 53 0 0.0 0.0 0.00 0.08 0.00 93 1020.1
20260902004058 54 0 0.0 0.0 0.00 0.08 0.00 93 1020.1
20260902003558 54 0 0.0 0.0 0.00 0.08 0.00 93 1020.2
20260902003106 54 0 0.0 0.0 0.00 0.08 0.00 93 1020.2
20260902002600 54 0 0.0 0.0 0.00 0.08 0.00 93 1020.3
20260902002057 54 0 0.0 1.7 0.00 0.08 0.00 93 1020.3
20260902001621 54 0 0.0 2.6 0.00 0.08 0.00 93 1020.4
20260902001059 54 248 0.0 2.6 0.00 0.08 0.00 93 1020.4
20260902000557 54 0 0.9 2.6 0.00 0.08 0.00 93 1020.3
20260902000108 54 248 0.9 2.6 0.00 0.08 0.00 93 1020.3
20260901235557 54 248 0.0 2.6 0.00 0.08 0.00 93 1020.2
20260901235058 54 248 0.9 2.6 0.00 0.08 0.00 93 1020.3
20260901234604 54 0 0.0 0.9 0.00 0.08 0.00 93 1020.2
20260901234057 54 0 0.0 1.7 0.00 0.08 0.00 93 1020.3
20260901233556 55 0 0.0 1.7 0.00 0.08 0.00 93 1020.2
20260901233105 55 0 0.0 2.6 0.00 0.08 0.00 93 1020.2
20260901232558 55 248 0.0 2.6 0.00 0.08 0.00 93 1020.3
20260901232057 55 248 0.9 2.6 0.00 0.08 0.00 93 1020.3
20260901231607 55 248 0.9 2.6 0.00 0.08 0.00 93 1020.3
20260901231056 55 0 0.0 1.7 0.00 0.08 0.00 92 1020.2
20260901230557 55 0 0.0 1.7 0.00 0.08 0.00 92 1020.2
20260901230058 56 248 0.9 1.7 0.00 0.08 0.00 92 1020.2
20260901225557 56 248 0.9 1.7 0.00 0.08 0.00 92 1020.2
20260901225056 56 248 0.9 2.6 0.00 0.08 0.00 92 1020.2
20260901224602 56 248 0.0 2.6 0.00 0.08 0.00 91 1020.2
20260901224056 56 248 0.9 2.6 0.00 0.08 0.00 91 1020.2
20260901223556 57 248 1.7 3.5 0.00 0.08 0.00 91 1020.1
20260901223059 56 248 1.7 3.5 0.00 0.08 0.00 91 1020.1
20260901222555 57 248 0.9 3.5 0.00 0.08 0.00 91 1020.1
20260901222059 57 248 0.9 3.5 0.00 0.08 0.00 91 1020.2
20260901221618 57 248 1.7 3.5 0.00 0.08 0.00 91 1020.2
20260901221056 57 249 1.7 3.5 0.00 0.08 0.00 90 1020.2
20260901220556 57 249 0.9 3.5 0.00 0.08 0.00 90 1020.1
20260901220116 58 249 1.7 4.3 0.00 0.08 0.00 90 1020.1
20260901215557 58 249 1.7 4.3 0.00 0.08 0.08 89 1020.1
20260901215057 58 250 0.9 4.3 0.00 0.08 0.08 89 1020.1
20260901214604 58 246 0.9 4.3 0.00 0.08 0.08 89 1020.1
20260901214056 58 248 1.7 4.3 0.00 0.08 0.08 88 1020.1
20260901213557 59 246 1.7 6.1 0.00 0.08 0.08 88 1020.2
20260901213107 59 245 1.7 6.1 0.00 0.08 0.08 88 1020.2
20260901212558 59 234 0.9 6.1 0.00 0.08 0.08 88 1020.1
20260901212057 59 234 1.7 7.0 0.00 0.08 0.08 87 1020.1
20260901211600 59 240 1.7 7.0 0.00 0.08 0.08 87 1020.1
20260901211057 59 0 3.5 7.0 0.00 0.08 0.08 87 1020.0
20260901210555 60 252 3.5 7.0 0.00 0.08 0.08 86 1020.0
20260901210107 60 244 3.5 7.8 0.00 0.08 0.08 86 1020.0
20260901205555 60 253 2.6 7.8 0.00 0.08 0.08 86 1020.0
20260901205058 60 246 3.5 7.8 0.00 0.08 0.08 86 1020.0
20260901204606 60 236 3.5 7.8 0.00 0.08 0.08 86 1020.0
20260901204102 60 236 3.5 7.8 0.00 0.08 0.08 86 1020.0
20260901203556 60 242 2.6 7.8 0.00 0.08 0.08 85 1019.9
20260901203103 60 257 2.6 8.7 0.00 0.08 0.08 85 1020.0
20260901202556 61 240 3.5 8.7 0.00 0.08 0.08 85 1019.9
20260901202059 61 254 4.3 8.7 0.00 0.08 0.08 84 1020.0
20260901201600 61 245 3.5 8.7 0.00 0.08 0.08 84 1019.9
20260901201058 61 240 4.3 7.8 0.00 0.08 0.08 84 1019.8
20260901200557 61 251 3.5 9.6 0.00 0.08 0.08 84 1019.9
20260901200104 61 254 3.5 10.4 0.00 0.08 0.08 84 1019.8
20260901195557 61 248 3.5 10.4 0.00 0.08 0.08 83 1019.8
20260901195058 61 250 3.5 10.4 0.00 0.08 0.08 83 1019.7
20260901194603 61 275 5.2 11.3 0.00 0.08 0.08 83 1019.7
20260901194057 62 240 3.5 11.3 0.00 0.08 0.08 82 1019.7
20260901193557 62 269 4.3 12.2 0.00 0.08 0.08 82 1019.6
20260901193101 62 269 6.1 12.2 0.00 0.08 0.08 81 1019.6
20260901192557 62 259 4.3 12.2 0.00 0.08 0.08 81 1019.6
20260901192059 62 271 5.2 10.4 0.00 0.08 0.08 81 1019.6
20260901191610 62 252 5.2 10.4 0.00 0.08 0.08 81 1019.6
20260901191058 62 260 5.2 9.6 0.00 0.08 0.08 80 1019.6
20260901190557 62 261 5.2 9.6 0.00 0.08 0.08 80 1019.6
20260901190104 62 243 4.3 9.6 0.00 0.08 0.08 80 1019.5
20260901185559 62 254 3.5 10.4 0.00 0.08 0.08 80 1019.4
20260901185057 63 245 4.3 10.4 0.00 0.08 0.08 79 1019.5
20260901184601 63 261 3.5 8.7 0.00 0.08 0.08 79 1019.3
20260901184058 63 257 4.3 10.4 0.00 0.08 0.08 79 1019.2
20260901183557 63 262 5.2 10.4 0.00 0.08 0.08 78 1019.0
20260901183103 63 265 5.2 10.4 0.00 0.08 0.08 78 1019.0
20260901182601 63 254 3.5 7.8 0.00 0.08 0.08 79 1019.0
20260901182058 63 259 2.6 7.0 0.00 0.08 0.08 78 1018.9
20260901181611 64 276 1.7 6.1 0.00 0.08 0.08 78 1018.9
20260901181057 64 267 1.7 7.0 0.00 0.08 0.08 78 1018.9
20260901180557 64 264 3.5 7.0 0.00 0.08 0.08 78 1018.8
20260901180107 64 244 2.6 7.0 0.00 0.08 0.08 78 1018.8
20260901175558 64 257 2.6 7.0 0.00 0.14 0.08 78 1018.8
20260901175057 64 233 2.6 7.0 0.00 0.14 0.08 78 1018.8
20260901174602 64 242 2.6 6.1 0.00 0.14 0.08 77 1018.7
20260901174058 64 241 1.7 6.1 0.00 0.14 0.08 77 1018.7
20260901173558 64 232 1.7 7.0 0.00 0.14 0.08 77 1018.6
20260901173103 65 248 2.6 7.0 0.00 0.14 0.08 76 1018.7
20260901172557 65 237 3.5 7.8 0.00 0.14 0.08 76 1018.6
20260901172059 65 257 3.5 9.6 0.00 0.14 0.08 75 1018.6
20260901171607 65 277 4.3 9.6 0.00 0.14 0.08 75 1018.6
20260901171058 65 268 4.3 10.4 0.00 0.14 0.08 74 1018.6
20260901170558 65 241 3.5 10.4 0.00 0.14 0.08 74 1018.7
20260901170100 66 247 5.2 10.4 0.00 0.14 0.08 74 1018.7
20260901165557 66 245 5.2 10.4 0.00 0.16 0.08 74 1018.7
20260901165058 66 257 6.1 10.4 0.00 0.16 0.08 72 1018.7
20260901164606 66 219 3.5 11.3 0.00 0.16 0.08 72 1018.7
20260901164057 67 258 6.1 11.3 0.00 0.16 0.08 70 1018.6
20260901163557 67 265 4.3 10.4 0.00 0.16 0.08 71 1018.5
20260901163107 67 281 5.2 11.3 0.00 0.16 0.08 70 1018.5
20260901162600 67 254 6.1 11.3 0.00 0.16 0.08 69 1018.4
20260901162057 68 273 5.2 11.3 0.00 0.16 0.08 69 1018.4
20260901161611 67 257 6.1 11.3 0.00 0.16 0.08 70 1018.4
20260901161058 67 299 7.0 11.3 0.00 0.16 0.08 70 1018.6
20260901160556 67 255 5.2 10.4 0.00 0.16 0.08 72 1018.5
20260901160111 66 224 5.2 10.4 0.00 0.16 0.08 72 1018.5
20260901155558 67 243 5.2 9.6 0.00 0.17 0.08 73 1018.5
20260901155102 66 272 4.3 12.2 0.00 0.17 0.08 74 1018.4
20260901154605 66 240 4.3 12.2 0.00 0.17 0.08 74 1018.5
20260901154057 66 291 6.1 11.3 0.00 0.17 0.08 73 1018.5
20260901153558 66 270 5.2 9.6 0.00 0.17 0.08 73 1018.5
20260901153105 66 267 4.3 11.3 0.00 0.17 0.08 73 1018.5
20260901152557 66 262 4.3 13.0 0.00 0.17 0.08 72 1018.5
20260901152057 66 265 5.2 13.9 0.00 0.17 0.08 71 1018.5
20260901151611 66 265 7.0 18.2 0.00 0.17 0.08 70 1018.5
20260901151059 66 250 9.6 18.2 0.00 0.17 0.08 69 1018.5
20260901150559 67 275 9.6 16.5 0.00 0.17 0.08 66 1018.5
20260901150103 67 248 7.0 15.6 0.00 0.17 0.08 67 1018.5
20260901145558 68 239 8.7 16.5 0.00 0.22 0.08 66 1018.5
20260901145059 68 276 6.1 16.5 0.00 0.22 0.08 68 1018.5
20260901144611 67 253 6.1 14.8 0.00 0.22 0.08 68 1018.4
20260901144101 67 317 7.0 14.8 0.00 0.22 0.08 72 1018.5
20260901143558 67 276 3.5 9.6 0.00 0.22 0.08 77 1018.5
20260901143105 67 275 2.6 11.3 0.00 0.22 0.08 73 1018.4
20260901142556 68 284 4.3 11.3 0.00 0.22 0.08 70 1018.3
20260901142057 68 284 4.3 10.4 0.00 0.22 0.08 71 1018.4
20260901141605 68 281 6.1 15.6 0.00 0.22 0.08 72 1018.3
20260901141058 67 271 5.2 15.6 0.00 0.22 0.08 73 1018.3
20260901140558 67 324 6.1 16.5 0.00 0.22 0.08 73 1018.4
20260901140111 69 262 7.8 16.5 0.00 0.22 0.08 70 1018.3
20260901135557 70 301 4.3 14.8 0.00 0.25 0.08 66 1018.3
20260901135058 70 260 8.7 14.8 0.00 0.25 0.08 64 1018.2
20260901134608 71 236 7.8 15.6 0.00 0.25 0.08 62 1018.3
20260901134100 71 273 7.8 15.6 0.00 0.25 0.08 62 1018.4
20260901133557 72 277 8.7 15.6 0.00 0.25 0.08 60 1018.3
20260901133105 73 279 7.8 15.6 0.00 0.25 0.08 58 1018.2
20260901132557 72 260 9.6 18.2 0.00 0.25 0.08 59 1018.1
20260901132057 73 277 10.4 18.2 0.00 0.25 0.08 57 1018.1
20260901131602 73 277 7.0 15.6 0.00 0.25 0.08 58 1018.1
20260901131100 72 258 8.7 15.6 0.00 0.25 0.08 59 1018.2
20260901130557 72 250 8.7 16.5 0.00 0.25 0.08 60 1018.2
20260901130106 70 279 9.6 16.5 0.00 0.25 0.08 60 1018.2
20260901125558 71 242 7.8 16.5 0.00 0.25 0.08 63 1018.2
20260901125057 72 252 10.4 16.5 0.00 0.25 0.08 61 1018.1
20260901124602 72 250 7.8 13.9 0.00 0.25 0.08 62 1018.1
20260901124058 73 255 7.0 14.8 0.00 0.25 0.08 59 1018.2
20260901123558 72 274 8.7 14.8 0.00 0.25 0.08 60 1018.2
20260901123102 72 273 8.7 14.8 0.00 0.25 0.08 62 1018.2
20260901122557 71 279 7.8 15.6 0.00 0.25 0.08 63 1018.2
20260901122056 71 263 7.8 15.6 0.00 0.25 0.08 62 1018.2
20260901121559 72 209 7.0 15.6 0.00 0.25 0.08 61 1018.1
20260901121058 72 259 8.7 15.6 0.00 0.25 0.08 61 1018.1
20260901120558 73 287 8.7 13.9 0.00 0.25 0.08 61 1018.1
20260901120105 72 236 7.8 14.8 0.00 0.25 0.08 64 1018.2
20260901115557 70 240 7.8 14.8 0.00 0.25 0.08 64 1018.2
20260901115057 71 281 7.8 13.0 0.00 0.25 0.08 65 1018.2
20260901114645 70 232 7.0 13.0 0.00 0.25 0.08 66 1018.2
20260901114058 70 244 7.0 13.9 0.00 0.25 0.08 66 1018.3
20260901113557 70 267 8.7 16.5 0.00 0.25 0.08 65 1018.3
20260901113101 69 235 10.4 17.4 0.00 0.25 0.08 65 1018.3
20260901112556 70 250 8.7 17.4 0.00 0.25 0.08 66 1018.3
20260901112057 70 263 8.7 17.4 0.00 0.25 0.08 66 1018.3
20260901111620 70 244 9.6 17.4 0.00 0.25 0.08 64 1018.3
20260901111058 70 265 7.8 16.5 0.00 0.25 0.08 65 1018.2
20260901110559 70 267 8.7 16.5 0.00 0.25 0.08 65 1018.2
20260901110104 70 273 8.7 16.5 0.00 0.25 0.08 66 1018.2
20260901105558 69 273 7.8 16.5 0.00 0.25 0.08 67 1018.2
20260901105058 69 239 7.8 16.5 0.00 0.25 0.08 67 1018.3
20260901104603 69 277 8.7 16.5 0.00 0.25 0.08 67 1018.2
20260901104057 70 251 9.6 17.4 0.00 0.25 0.08 65 1018.2
20260901103557 70 252 8.7 17.4 0.00 0.25 0.08 70 1018.1
20260901103059 69 259 6.1 14.8 0.00 0.25 0.08 69 1018.2
20260901102557 70 251 7.8 20.0 0.00 0.25 0.08 69 1018.1
20260901102102 69 275 9.6 20.0 0.00 0.25 0.08 70 1018.2
20260901101607 69 281 11.3 19.1 0.00 0.25 0.08 69 1018.3
20260901101056 69 248 7.0 14.8 0.00 0.25 0.08 69 1018.2
20260901100557 68 246 7.0 14.8 0.00 0.25 0.08 74 1018.2
20260901100107 67 254 7.8 14.8 0.00 0.25 0.08 73 1018.1
20260901095601 67 229 7.0 15.6 0.00 0.25 0.08 76 1018.1
20260901095058 66 250 6.1 15.6 0.00 0.25 0.08 76 1018.1
20260901094604 65 232 7.8 13.9 0.00 0.25 0.08 78 1018.1
20260901094056 65 255 6.1 14.8 0.00 0.25 0.08 79 1018.1
20260901093557 65 259 7.8 14.8 0.00 0.25 0.08 79 1018.1
20260901093104 65 268 9.6 14.8 0.00 0.25 0.08 78 1018.1
20260901092557 65 244 7.0 14.8 0.00 0.25 0.08 78 1018.0
20260901092057 66 271 4.3 14.8 0.00 0.25 0.08 78 1018.1
20260901091612 66 271 2.6 14.8 0.00 0.25 0.08 81 1018.0
20260901091056 65 294 6.1 14.8 0.00 0.25 0.08 81 1018.1
20260901090556 64 260 7.8 15.6 0.00 0.25 0.08 81 1018.0
20260901090108 65 254 7.0 15.6 0.00 0.25 0.08 80 1018.0
20260901085557 65 286 6.1 13.0 0.00 0.25 0.08 82 1018.0
20260901085100 64 265 7.0 13.9 0.00 0.25 0.08 82 1017.9
20260901084608 64 257 6.1 13.9 0.00 0.25 0.08 83 1017.9
20260901084057 64 262 8.7 13.9 0.00 0.25 0.08 83 1017.9
20260901083558 64 269 7.8 14.8 0.00 0.25 0.08 84 1017.8
20260901083107 64 250 7.0 14.8 0.00 0.25 0.08 85 1017.8
20260901082557 63 259 7.8 12.2 0.00 0.25 0.08 85 1017.8
20260901082059 63 223 6.1 12.2 0.00 0.25 0.08 86 1017.8
20260901081607 63 234 5.2 14.8 0.00 0.25 0.08 87 1017.8
20260901081056 63 259 6.1 14.8 0.00 0.25 0.08 87 1017.8
20260901080556 63 253 7.0 14.8 0.00 0.25 0.08 88 1017.8
20260901080104 63 248 7.8 14.8 0.00 0.25 0.08 88 1017.7
20260901075556 62 250 7.0 13.0 0.07 0.25 0.08 90 1017.7
20260901075057 62 229 7.0 13.0 0.07 0.25 0.08 90 1017.7
20260901074603 61 238 6.1 11.3 0.07 0.25 0.08 90 1017.6
20260901074058 61 254 6.1 11.3 0.08 0.25 0.08 91 1017.6
20260901073557 61 256 6.1 11.3 0.08 0.25 0.08 91 1017.6
20260901073121 61 254 3.5 10.4 0.08 0.25 0.08 91 1017.6
20260901072558 61 239 3.5 8.7 0.08 0.25 0.08 92 1017.5
20260901072057 60 241 3.5 8.7 0.08 0.25 0.08 91 1017.6
20260901071606 60 271 3.5 7.8 0.08 0.25 0.08 91 1017.5
20260901071057 60 238 3.5 7.8 0.07 0.24 0.07 90 1017.5
20260901070558 60 256 2.6 7.8 0.07 0.24 0.07 89 1017.5